Content
SEND FEEDBACK

Daily
Averages
Monthly
Summary
United States of America

CALICO ROCK, ARKANSAS


Home > North America > United States > Arkansas
Elevation: 350 feet     Latitude: 36 07N     Longitude: 092 10W

WEATHER
 
SELECT A DAY
Number of Records: 165,528;   Date Range: 10/22/98 - 9/19/14
 
SHARE

PRINT THIS DATA

[ ← Previous Day ]
WEATHER ALMANAC - FEBRUARY 13, 2013
[ Next Day → ]
[ °C ]   °F
Weather ElementAverageHighLow
Temperature38.5 °F52 °F (1:53 pm)33.1 °F (3:53 am)
Dewpoint33.3 °F41 °F (10:53 am)27 °F (3:53 pm)
Humidity85 %100 % (1:48 am)39 % (3:53 pm)
Barometer29.94 in30.00 in (8:53 am)29.89 in (3:03 am)
Wind Speed3.3 mph10.4 mph (12:53 pm)
Wind Gust18.4 mph (2:53 pm)
Weather ElementAverage
Visibility7.5 mi
Wind DirectionESE (122 °)

Weather ElementTotal
Precipitation0.20 in
Heating Degree Days22.5 (Base 65)
Averaged from 41 records on February 13, 2013
WEATHER CONDITIONS BREAKOUT
WIND DIRECTION BREAKOUT
WEATHER BY HOUR - FEBRUARY 13, 2013
[ °C ]   °F
Local TimeTemperatureDewpointHumidityBarometerVisibilityWind DirectionWind SpeedGust SpeedPrecipitationEventsConditions
12:17 AM35.6 °F33.8 °F93 %29.92 in6.0 miNNW (340°)5.8 mph0.02 inRainLight Rain
12:53 AM35.1 °F33.1 °F92 %29.92 in7.0 miNorth (350°)6.9 mph0.03 inRainLight Rain
1:48 AM33.8 °F33.8 °F100 %29.91 in7.0 miCalm0.03 inRainLight Rain
1:53 AM34.0 °F34.0 °F100 %29.92 in7.0 miNorth (10°)3.5 mph0.03 inRainLight Rain
2:10 AM33.8 °F33.8 °F100 %29.91 in7.0 miCalm0.00 inRainLight Rain
2:32 AM33.8 °F33.8 °F100 %29.90 in7.0 miCalm0.01 inRainLight Rain
2:53 AM34.0 °F34.0 °F100 %29.91 in5.0 miCalm0.01 inRainLight Rain
3:03 AM33.8 °F33.8 °F100 %29.89 in5.0 miCalm0.01 inRainLight Rain
3:31 AM33.8 °F33.8 °F100 %29.89 in4.0 miCalm0.01 inSnowLight Snow
3:42 AM33.8 °F33.8 °F100 %29.89 in5.0 miCalm0.01 inRainLight Freezing Rain
3:53 AM33.1 °F33.1 °F100 %29.91 in5.0 miCalm0.01 inRainLight Freezing Rain
4:04 AM33.8 °F33.8 °F100 %29.90 in4.0 miNW (320°)3.5 mph0.01 inSnowLight Snow
4:53 AM33.1 °F33.1 °F100 %29.93 in3.0 miNW (310°)4.6 mph0.02 inSnowLight Snow
5:16 AM33.8 °F33.8 °F100 %29.92 in5.0 miVariable3.5 mph0.00 inRainLight Freezing Rain
5:53 AM34.0 °F34.0 °F100 %29.94 in6.0 miCalm0.00 inRainLight Freezing Rain
6:12 AM33.8 °F33.8 °F100 %29.93 in7.0 miNW (320°)3.5 mph0.00 inOvercast
6:37 AM33.8 °F33.8 °F100 %29.93 in7.0 miCalm0.00 inOvercast
6:53 AM34.0 °F34.0 °F100 %29.95 in8.0 miWNW (290°)3.5 mph0.00 inOvercast
7:21 AM35.6 °F35.6 °F100 %29.95 in9.0 miWNW (300°)3.5 mphOvercast
7:49 AM35.6 °F35.6 °F100 %29.97 in7.0 miCalmOvercast
7:53 AM35.1 °F35.1 °F100 %29.98 in7.0 miWNW (290°)4.6 mphOvercast
8:03 AM35.6 °F35.6 °F100 %29.97 in7.0 miVariable4.6 mph0.00 inRainLight Rain
8:53 AM35.1 °F35.1 °F100 %30.00 in7.0 miVariable3.5 mph0.00 inOvercast
9:18 AM35.6 °F35.6 °F100 %29.99 in4.0 miVariable3.5 mphOvercast
9:53 AM36.0 °F36.0 °F100 %30.00 in6.0 miWest (270°)4.6 mphOvercast
10:30 AM39.2 °F39.2 °F100 %29.98 in8.0 miVariable4.6 mphMostly Cloudy
10:53 AM42.1 °F41.0 °F96 %30.00 in9.0 miVariable5.8 mphMostly Cloudy
11:17 AM41.0 °F37.4 °F87 %29.97 in9.0 miWest (260°)4.6 mphScattered Clouds
11:53 AM46.0 °F36.0 °F68 %29.97 in9.0 miVariable6.9 mphPartly Cloudy
12:53 PM48.9 °F32.0 °F52 %29.94 in10.0 miWSW (240°)10.4 mphPartly Cloudy
1:53 PM52.0 °F30.9 °F45 %29.93 in10.0 miVariable4.6 mphScattered Clouds
2:53 PM50.0 °F28.9 °F44 %29.91 in10.0 miWNW (290°)4.6 mph18.4 mphClear
3:53 PM51.1 °F27.0 °F39 %29.91 in10.0 miVariable6.9 mph16.1 mphClear
4:53 PM50.0 °F28.0 °F43 %29.92 in10.0 miWNW (300°)5.8 mphClear
5:53 PM46.9 °F28.9 °F50 %29.92 in10.0 miCalmClear
6:53 PM46.0 °F28.9 °F51 %29.93 in10.0 miCalmClear
7:53 PM44.1 °F28.9 °F55 %29.94 in10.0 miWSW (240°)3.5 mphClear
8:53 PM42.1 °F28.9 °F60 %29.94 in10.0 miSW (220°)6.9 mphClear
9:53 PM42.1 °F30.0 °F62 %29.95 in10.0 miWSW (240°)3.5 mphClear
10:53 PM39.9 °F30.9 °F70 %29.95 in10.0 miSSW (210°)4.6 mphClear
11:53 PM37.9 °F30.9 °F76 %29.95 in10.0 miSSW (200°)4.6 mphClear
Hourly data recorded from KBPK, located miles away from Calico Rock, Arkansas







STORIES FROM OUR PARTNERS